Change the Weather History Date:

Thursday, February 28, 2013

  Actual Average Record
Temperature  
Mean Temperature 31 °F -  
Max Temperature 34 °F 36 °F 54 °F (1983)
Min Temperature 28 °F 16 °F -21 °F (2014)
Degree Days  
Heating Degree Days 34    
Moisture  
Dew Point 27 °F    
Average Humidity 79    
Maximum Humidity 94    
Minimum Humidity 64    
Precipitation  
Precipitation 0.00 in - - ()
Sea Level Pressure  
Sea Level Pressure 29.79 in    
Wind  
Wind Speed 9 mph (North)    
Max Wind Speed 14 mph    
Max Gust Speed 21 mph    
Visibility 10 miles    
Events Snow    
Averages and records for this station are not official NWS values.
T = Trace of Precipitation, MM = Missing Value Source: NWS Daily Summary

Daily Weather History Graph

Daily Weather History Graph

Search for Another Location

Airport or City:

Trip Planner

Search our weather history database for the weather conditions in past years. The results will help you decide how hot, cold, wet, or windy it might be!

Date:

Astronomy

Feb. 28, 2013 Rise Set
Actual Time 7:19 AM EST 6:29 PM EST
Civil Twilight 6:51 AM EST 6:58 PM EST
Nautical Twilight 6:17 AM EST 7:31 PM EST
Astronomical Twilight 5:44 AM EST 8:05 PM EST
Moon 10:04 PM EST (2/28) 8:21 AM EST (2/28)
Length of Visible Light 12h 07m
Length of Day
11h 09m
Waning Gibbous, 91% of the Moon is Illuminated
Feb 28
Waning Gibbous
Mar 4
Last Quarter
Mar 11
New
Mar 19
First Quarter
Mar 27
Full

Hourly Weather History & Observations

Time (EST) Temp. Windchill Dew Point Humidity Pressure Visibility Wind Dir Wind Speed Gust Speed Precip Events Conditions
12:14 AM 33.1 °F 26.9 °F 31.5 °F 94% 29.61 in 7.0 mi North 6.9 mph - N/A Snow Light Snow
1:14 AM 32.9 °F 26.7 °F 31.1 °F 93% 29.62 in 10.0 mi North 6.9 mph - N/A   Overcast
1:34 AM 32.9 °F 27.5 °F 30.9 °F 92% 29.62 in 10.0 mi North 5.8 mph - N/A Snow Light Snow
2:14 AM 32.9 °F 25.9 °F 30.2 °F 90% 29.62 in 10.0 mi NNW 8.1 mph - N/A Snow Light Snow
2:34 AM 32.9 °F 25.3 °F 30.7 °F 92% 29.62 in 7.0 mi North 9.2 mph - N/A Snow Light Snow
2:53 AM 32.9 °F 25.3 °F 30.4 °F 90% 29.62 in 10.0 mi North 9.2 mph - N/A Snow Light Snow
3:14 AM 32.5 °F 25.5 °F 30.6 °F 92% 29.62 in 7.0 mi North 8.1 mph - N/A Snow Light Snow
3:34 AM 32.5 °F 25.5 °F 30.7 °F 93% 29.62 in 7.0 mi North 8.1 mph - N/A Snow Light Snow
3:54 AM 32.7 °F 24.5 °F 30.7 °F 92% 29.63 in 7.0 mi North 10.4 mph - N/A Snow Light Snow
4:14 AM 32.9 °F 25.3 °F 30.9 °F 92% 29.63 in 7.0 mi NNW 9.2 mph - N/A Snow Light Snow
4:33 AM 32.9 °F 25.9 °F 30.9 °F 92% 29.64 in 5.0 mi North 8.1 mph - N/A Snow Light Snow
4:54 AM 32.9 °F 24.7 °F 31.1 °F 93% 29.65 in 7.0 mi NNW 10.4 mph - N/A Snow Light Snow
5:14 AM 32.9 °F 25.3 °F 30.9 °F 92% 29.66 in 10.0 mi NNW 9.2 mph - N/A   Overcast
5:33 AM 32.9 °F 25.9 °F 30.7 °F 92% 29.67 in 10.0 mi North 8.1 mph - N/A Snow Light Snow
5:54 AM 32.9 °F 26.7 °F 30.7 °F 92% 29.68 in 7.0 mi North 6.9 mph - N/A Snow Light Snow
6:14 AM 33.1 °F 25.5 °F 30.7 °F 91% 29.69 in 10.0 mi North 9.2 mph - N/A   Overcast
6:34 AM 33.1 °F 24.9 °F 30.7 °F 91% 29.69 in 10.0 mi North 10.4 mph - N/A   Overcast
6:54 AM 33.1 °F 25.5 °F 30.6 °F 90% 29.70 in 10.0 mi North 9.2 mph - N/A   Overcast
7:14 AM 33.1 °F 26.1 °F 30.2 °F 89% 29.71 in 10.0 mi North 8.1 mph - N/A   Overcast
7:34 AM 32.9 °F 25.3 °F 30.6 °F 91% 29.71 in 10.0 mi NNW 9.2 mph - N/A   Overcast
7:54 AM 33.1 °F 26.9 °F 30.2 °F 89% 29.72 in 10.0 mi NNW 6.9 mph - N/A   Overcast
8:13 AM 33.1 °F 26.1 °F 30.2 °F 89% 29.73 in 10.0 mi North 8.1 mph - N/A   Overcast
8:34 AM 33.4 °F 24.8 °F 30.0 °F 87% 29.74 in 10.0 mi North 11.5 mph - N/A   Overcast
8:54 AM 33.8 °F 25.3 °F 29.8 °F 85% 29.75 in 10.0 mi North 11.5 mph - N/A   Overcast
9:14 AM 33.8 °F 24.8 °F 29.8 °F 85% 29.76 in 10.0 mi North 12.7 mph - N/A   Overcast
9:34 AM 33.8 °F 25.8 °F 29.8 °F 85% 29.76 in 10.0 mi North 10.4 mph - N/A   Overcast
9:54 AM 34.2 °F 24.8 °F 29.5 °F 83% 29.76 in 10.0 mi North 13.8 mph 17.3 mph N/A   Overcast
10:14 AM 34.2 °F 26.2 °F 27.3 °F 76% 29.77 in 10.0 mi North 10.4 mph - N/A   Overcast
10:34 AM 34.2 °F 26.2 °F 27.1 °F 75% 29.78 in 10.0 mi North 10.4 mph - N/A   Overcast
10:54 AM 34.2 °F 26.8 °F 27.0 °F 75% 29.78 in 10.0 mi North 9.2 mph 16.1 mph N/A Snow Light Snow
11:13 AM 34.3 °F 25.0 °F 27.1 °F 75% 29.79 in 7.0 mi North 13.8 mph 17.3 mph N/A Snow Light Snow
11:34 AM 33.8 °F 24.3 °F 26.6 °F 75% 29.79 in 10.0 mi North 13.8 mph 18.4 mph N/A Snow Light Snow
11:54 AM 34.2 °F 25.2 °F 26.4 °F 73% 29.80 in 10.0 mi North 12.7 mph - N/A Snow Light Snow
12:14 PM 34.7 °F 25.5 °F 26.4 °F 72% 29.80 in 10.0 mi North 13.8 mph - N/A   Overcast
12:34 PM 34.3 °F 26.5 °F 25.7 °F 71% 29.80 in 10.0 mi North 10.4 mph - N/A   Overcast
12:54 PM 34.2 °F 24.8 °F 25.5 °F 71% 29.81 in 10.0 mi NNW 13.8 mph 17.3 mph N/A   Overcast
1:14 PM 33.8 °F 24.8 °F 25.5 °F 72% 29.81 in 10.0 mi North 12.7 mph - N/A   Overcast
1:34 PM 34.0 °F 25.5 °F 25.7 °F 72% 29.81 in 10.0 mi North 11.5 mph - N/A   Overcast
1:54 PM 33.8 °F 25.3 °F 25.3 °F 71% 29.82 in 10.0 mi North 11.5 mph - N/A   Overcast
2:14 PM 33.8 °F 25.8 °F 25.5 °F 72% 29.82 in 10.0 mi North 10.4 mph - N/A   Overcast
2:34 PM 33.3 °F 23.7 °F 25.7 °F 74% 29.82 in 10.0 mi North 13.8 mph 17.3 mph N/A   Overcast
2:54 PM 32.9 °F 23.7 °F 25.7 °F 75% 29.83 in 10.0 mi North 12.7 mph - N/A   Overcast
3:14 PM 33.3 °F 24.6 °F 25.3 °F 73% 29.83 in 10.0 mi North 11.5 mph - N/A   Overcast
3:34 PM 33.4 °F 24.8 °F 24.8 °F 71% 29.84 in 10.0 mi North 11.5 mph - N/A   Overcast
3:54 PM 33.1 °F 25.5 °F 24.4 °F 71% 29.85 in 10.0 mi North 9.2 mph - N/A   Overcast
4:13 PM 33.3 °F 25.7 °F 24.1 °F 69% 29.86 in 10.0 mi North 9.2 mph 17.3 mph N/A   Overcast
4:34 PM 32.9 °F 24.1 °F 24.1 °F 70% 29.86 in 10.0 mi North 11.5 mph - N/A   Overcast
4:54 PM 32.7 °F 23.4 °F 23.9 °F 70% 29.87 in 10.0 mi North 12.7 mph - N/A   Overcast
5:13 PM 32.2 °F 22.3 °F 23.9 °F 72% 29.88 in 10.0 mi North 13.8 mph 19.6 mph N/A   Overcast
5:34 PM 32.0 °F 22.5 °F 23.9 °F 72% 29.89 in 10.0 mi North 12.7 mph 20.7 mph N/A   Overcast
5:53 PM 31.8 °F 22.3 °F 23.7 °F 72% 29.90 in 10.0 mi North 12.7 mph - N/A   Overcast
6:14 PM 31.5 °F 21.8 °F 23.5 °F 73% 29.91 in 10.0 mi North 12.7 mph - N/A   Overcast
7:14 PM 30.7 °F 21.4 °F 22.6 °F 72% 29.94 in 10.0 mi North 11.5 mph 18.4 mph N/A   Overcast
7:34 PM 30.6 °F 20.7 °F 22.3 °F 71% 29.94 in 10.0 mi North 12.7 mph - N/A   Overcast
8:14 PM 30.2 °F 20.8 °F 21.9 °F 71% 29.96 in 10.0 mi North 11.5 mph - N/A   Overcast
8:34 PM 30.0 °F 22.4 °F 21.6 °F 71% 29.96 in 10.0 mi North 8.1 mph - N/A   Overcast
8:54 PM 29.8 °F 19.3 °F 21.2 °F 70% 29.96 in 10.0 mi North 13.8 mph - N/A   Overcast
9:13 PM 29.3 °F 19.6 °F 20.7 °F 70% 29.97 in 10.0 mi North 11.5 mph 18.4 mph N/A   Overcast
9:34 PM 29.3 °F 19.6 °F 20.3 °F 69% 29.98 in 10.0 mi North 11.5 mph 16.1 mph N/A   Overcast
9:54 PM 29.3 °F 20.8 °F 20.3 °F 69% 29.98 in 10.0 mi North 9.2 mph - N/A   Overcast
10:14 PM 29.3 °F 21.5 °F 19.8 °F 68% 29.98 in 10.0 mi North 8.1 mph - N/A   Overcast
10:34 PM 29.1 °F 22.1 °F 19.2 °F 67% 29.99 in 10.0 mi North 6.9 mph - N/A   Overcast
11:14 PM 28.9 °F 21.1 °F 18.1 °F 64% 29.99 in 10.0 mi North 8.1 mph - N/A   Overcast
11:54 PM 28.6 °F 20.7 °F 17.6 °F 64% 29.99 in 10.0 mi North 8.1 mph - N/A   Overcast